User: anonymous   Login
Location: Weston
(26.1283°N, 80.4075°W)
Time: 18:51:20
(UTC-04:00)
Language:

H-2A R/B - Orbit

View from above orbital plane
View from above orbital plane
View from above satellite
View from above satellite

Ground track
Ground track

The orbit data is extracted from the following two-line orbital elements,

1 26899U 01038B   17266.37861964  .00000195  00000-0  16861-3 0  9992
2 26899  28.4549  25.2545 7114913 253.3098  23.4405  2.48159396138958
Epoch (UTC): 23 September 2017 09:05:12
Eccentricity: 0.7114913
inclination: 28.4549°
perigee height: 270 km
apogee height: 33063 km
right ascension of ascending node: 25.2545°
argument of perigee: 253.3098°
revolutions per day: 2.48159396
mean anomaly at epoch: 23.4405°
orbit number at epoch: 13895

The dashed part of the orbit path shows where the satellite is in the earth's shadow,  

DLR